Location: lozzo di cadore
(46.4899°N, 12.4508°E)
Time: 10:20:09
(UTC+02:00)

ISS - Visible Passes

Search period start: 15 May 2021 00:00
Search period end: 25 May 2021 00:00
Orbit: 417 x 422 km, 51.6° (Epoch: 15 May)

Date Brightness Start Highest point End Pass type
(mag) Time Alt. Az. Time Alt. Az. Time Alt. Az.
15 May -2.3 00:27:54 10° W 00:31:05 38° NNW 00:34:17 10° ENE visible
15 May -2.1 02:05:15 10° WNW 02:08:25 35° N 02:11:34 10° ENE visible
15 May -3.9 03:42:05 10° WNW 03:45:28 84° SSW 03:48:50 10° ESE visible
15 May -3.5 22:03:31 10° SW 22:06:44 43° SE 22:09:56 10° ENE visible
15 May -2.7 23:40:17 10° W 23:43:33 46° NNW 23:46:49 10° ENE visible
16 May -2.0 01:17:44 10° WNW 01:20:50 33° N 01:23:56 10° ENE visible
16 May -3.5 02:54:37 10° WNW 02:58:00 69° NNE 03:01:23 10° ESE visible
16 May -2.6 04:31:50 10° W 04:34:34 23° SW 04:37:18 10° SSE visible
16 May -2.8 21:16:29 10° SSW 21:19:22 28° SE 21:22:19 10° E visible
16 May -3.2 22:52:42 10° WSW 22:56:01 59° NNW 22:59:22 10° ENE visible
17 May -1.9 00:30:09 10° WNW 00:33:14 32° N 00:36:20 10° ENE visible
17 May -2.9 02:07:12 10° WNW 02:10:30 51° NNE 02:13:48 10° E visible
17 May -3.2 03:44:08 10° WNW 03:47:14 35° SW 03:50:21 10° SSE visible
17 May -3.7 22:05:11 10° WSW 22:08:32 83° NNW 22:11:55 10° ENE visible
17 May -2.0 23:42:32 10° WNW 23:45:39 34° N 23:48:46 10° ENE visible
18 May -2.5 01:19:44 10° WNW 01:22:53 41° N 01:22:53 41° N visible
18 May -3.8 21:17:46 10° SW 21:21:05 67° SSE 21:24:26 10° ENE visible
18 May -2.2 22:54:54 10° W 22:58:04 38° NNW 23:01:15 10° ENE visible
19 May -2.2 00:32:14 10° WNW 00:35:23 35° N 00:36:27 28° NE visible
19 May -1.0 02:09:03 10° WNW 02:09:22 12° WNW 02:09:22 12° WNW visible
19 May -2.6 22:07:15 10° W 22:10:31 45° NNW 22:13:46 10° ENE visible
19 May -2.0 23:44:41 10° WNW 23:47:47 33° N 23:50:16 14° ENE visible
20 May -1.9 01:21:36 10° WNW 01:23:11 25° NW 01:23:11 25° NW visible
20 May -3.1 21:19:38 10° WSW 21:22:58 59° NNW 21:26:19 10° ENE visible
20 May -2.0 22:57:06 10° WNW 23:00:11 32° N 23:03:16 10° ENE visible
21 May -2.8 00:34:08 10° WNW 00:37:05 48° N 00:37:05 48° N visible
21 May -2.0 22:09:28 10° WNW 22:12:35 34° N 22:15:42 10° ENE visible
21 May -2.5 23:46:39 10° WNW 23:49:53 41° NNE 23:51:02 29° ENE visible
22 May -1.1 01:23:29 10° WNW 01:23:57 13° WNW 01:23:57 13° WNW visible
22 May -2.2 21:21:48 10° W 21:24:59 38° NNW 21:28:10 10° ENE visible
22 May -2.2 22:59:09 10° WNW 23:02:17 35° N 23:05:01 13° ENE visible
23 May -2.3 00:35:58 10° WNW 00:37:57 33° WNW 00:37:57 33° WNW visible
23 May -2.1 22:11:35 10° WNW 22:14:41 33° N 22:17:47 10° ENE visible
23 May -3.6 23:48:29 10° WNW 23:51:51 70° NNE 23:51:57 69° NE visible
24 May -2.0 21:23:59 10° WNW 21:27:04 32° N 21:30:09 10° ENE visible
24 May -3.1 23:01:00 10° WNW 23:04:19 51° NNE 23:05:59 25° E visible
